DL3NBY Weather Reports


time (UTC)temp
F
wind
direction
speed
knots
gust
knots
rain 1hr
in
rain 24hr
in
rain mn
in
humidity
%
barometer
mb
20260905122100 75 172 2.6 7.8 0.00 0.05 0.05 57 1019.6
20260905121055 75 100 1.7 13.0 0.00 0.05 0.05 55 1019.6
20260905120052 74 263 1.7 6.1 0.00 0.05 0.05 58 1019.5
20260905115049 73 225 2.6 5.2 0.00 0.05 0.05 60 1019.6
20260905114045 74 190 1.7 7.8 0.00 0.05 0.05 62 1019.5
20260905113042 73 246 1.7 7.8 0.00 0.05 0.05 61 1019.6
20260905111056 73 227 1.7 9.6 0.00 0.05 0.05 63 1019.6
20260905110033 71 252 2.6 7.8 0.00 0.05 0.05 67 1019.7
20260905105029 70 157 0.9 3.5 0.00 0.05 0.05 70 1019.8
20260905104046 71 353 0.9 5.2 0.00 0.05 0.05 72 1019.9
20260905103023 71 144 2.6 7.8 0.00 0.05 0.05 69 1019.9
20260905102020 70 218 1.7 8.7 0.00 0.05 0.05 72 1019.9
20260905101017 70 256 0.9 4.3 0.00 0.05 0.05 72 1019.8
20260905100114 69 225 0.9 7.0 0.00 0.05 0.05 73 1019.7
20260905095110 68 205 1.7 7.0 0.00 0.05 0.05 75 1019.9
20260905094128 68 250 1.7 7.0 0.00 0.05 0.05 77 1019.9
20260905093104 67 205 1.7 9.6 0.00 0.05 0.05 76 1020.0
20260905090055 66 219 1.7 6.1 0.00 0.05 0.05 81 1019.7
20260905085052 65 198 0.9 3.5 0.00 0.05 0.05 83 1019.7
20260905081041 64 225 0.9 3.5 0.00 0.05 0.05 86 1019.6
20260905075033 63 200 0.9 3.5 0.00 0.05 0.05 89 1019.6
20260905074030 63 203 0.9 4.3 0.00 0.05 0.05 90 1019.4
20260905072023 61 0.0 0.0 0.00 0.05 0.05 95 1019.4
20260905071020 61 0.0 1.7 0.00 0.05 0.05 94 1019.2
20260905070037 61 180 0.0 1.7 0.00 0.05 0.05 95 1019.2
20260905065135 60 0.0 1.7 0.00 0.05 0.05 95 1019.2
20260905064111 60 180 0.9 3.5 0.00 0.05 0.05 95 1019.2
20260905063108 60 203 2.6 4.3 0.00 0.05 0.05 95 1018.9
20260905062104 60 220 1.7 5.2 0.00 0.05 0.05 94 1018.8
20260905061121 59 216 1.7 4.3 0.00 0.05 0.05 95 1018.7
20260905060058 59 232 1.7 3.5 0.00 0.05 0.05 94 1018.5
20260905055055 59 204 0.0 1.7 0.00 0.05 0.05 95 1018.4
20260905053049 59 221 0.9 2.6 0.00 0.05 0.05 96 1018.1
20260905052046 59 193 0.9 3.5 0.00 0.05 0.05 96 1018.1
20260905051102 59 241 0.9 3.5 0.00 0.05 0.05 96 1018.0
20260905050039 58 185 0.9 4.3 0.00 0.05 0.05 96 1018.0
20260905045036 58 225 0.9 2.6 0.00 0.05 0.05 96 1017.9
20260905044033 58 225 0.9 3.5 0.00 0.05 0.05 96 1017.7
20260905043029 58 210 1.7 3.5 0.00 0.05 0.05 96 1017.5
20260905042026 58 0.0 1.7 0.00 0.05 0.05 96 1017.2
20260905041023 58 180 0.9 2.6 0.00 0.05 0.05 97 1017.1
20260905040020 57 240 0.0 1.7 0.00 0.05 0.05 99 1017.2
20260905035057 56 0.0 1.7 0.00 0.05 0.05 99 1017.2
20260905034114 57 0.0 1.7 0.00 0.05 0.05 99 1017.0
20260905033111 58 0.0 0.0 0.00 0.05 0.05 99 1017.0
20260905032108 58 0.0 1.7 0.00 0.05 0.05 99 1017.0
20260905031105 58 0.0 0.0 0.00 0.05 0.05 98 1016.9
20260905025059 57 0.0 0.9 0.00 0.05 0.05 99 1016.7
20260905024055 57 0.0 0.0 0.00 0.05 0.05 99 1016.7
20260905022049 58 207 0.9 3.5 0.04 0.05 0.05 99 1016.4
20260905015039 58 180 0.0 1.7 0.05 0.05 0.05 97 1016.8
20260905014036 58 0.0 0.0 0.05 0.05 0.05 97 1016.5
20260905013033 59 0.0 1.7 0.04 0.04 0.04 95 1016.5
20260905012030 60 0.0 0.0 0.01 0.01 0.01 93 1016.3
20260905010024 63 0.0 0.0 0.00 0.00 0.00 81 1016.3
20260905005041 63 225 0.0 1.7 0.00 0.00 0.00 71 1015.9
20260905004017 64 180 0.0 1.7 0.00 0.00 0.00 70 1015.6
20260905003134 64 270 0.9 2.6 0.00 0.00 0.00 69 1015.5
20260905002111 64 16 0.0 1.7 0.00 0.00 0.00 70 1015.5
20260905000104 63 0.0 0.0 0.00 0.00 0.00 72 1015.3
20260904233055 65 0.0 0.0 0.00 0.00 0.00 69 1015.2
20260904232052 65 180 0.0 1.7 0.00 0.00 0.00 68 1015.3
20260904231049 66 90 0.0 2.6 0.00 0.00 0.00 70 1015.4
20260904230046 66 180 0.0 1.7 0.00 0.00 0.00 71 1014.9
20260904225042 66 206 0.9 3.5 0.00 0.00 0.00 72 1015.0
20260904224039 67 151 0.0 2.6 0.00 0.00 0.00 73 1015.2
20260904222033 68 235 1.7 6.1 0.00 0.00 0.00 71 1015.0
20260904221110 69 270 0.9 4.3 0.00 0.00 0.00 74 1014.8
20260904220027 69 152 2.6 10.4 0.00 0.00 0.00 74 1014.5
20260904215023 70 258 1.7 7.8 0.00 0.00 0.00 75 1014.3
20260904214040 71 203 1.7 9.6 0.00 0.00 0.00 76 1013.8
20260904212114 76 241 2.6 7.0 0.00 0.00 0.00 72 1012.7
20260904211111 76 261 1.7 6.1 0.00 0.00 0.00 67 1012.0
20260904210108 76 221 0.9 6.1 0.00 0.00 0.00 68 1011.9
20260904205105 76 204 1.7 6.1 0.00 0.00 0.00 68 1011.9
20260904204122 76 237 1.7 6.1 0.00 0.00 0.00 67 1011.8
20260904203058 76 206 0.9 3.5 0.00 0.00 0.00 67 1011.7
20260904202055 76 202 0.9 4.3 0.00 0.00 0.00 67 1011.6
20260904201052 76 311 0.9 3.5 0.00 0.00 0.00 67 1011.5
20260904200049 76 252 0.9 3.5 0.00 0.00 0.00 67 1011.5
20260904195046 76 288 0.9 4.3 0.00 0.00 0.00 67 1011.5
20260904194043 76 293 0.0 2.6 0.00 0.00 0.00 66 1011.4
20260904193040 76 225 0.0 3.5 0.00 0.00 0.00 67 1011.2
20260904192037 76 270 0.0 4.3 0.00 0.00 0.00 67 1011.1
20260904191054 75 180 0.0 1.7 0.00 0.00 0.00 67 1011.0
20260904185023 75 0.0 0.0 0.00 0.00 0.00 74 1010.8
20260904184019 76 0.0 0.9 0.00 0.00 0.00 69 1010.8
20260904183016 77 0.0 1.7 0.00 0.00 0.00 68 1010.9
20260904182113 78 240 0.0 2.6 0.00 0.00 0.00 64 1010.7
20260904181110 79 192 0.9 3.5 0.00 0.00 0.00 62 1010.6
20260904180107 79 196 0.9 5.2 0.00 0.00 0.00 63 1010.6
20260904174101 79 270 0.0 2.6 0.00 0.00 0.00 64 1010.4
20260904173058 80 225 0.0 3.5 0.00 0.00 0.00 61 1010.3
20260904172055 80 113 0.0 1.7 0.00 0.00 0.00 61 1010.2
20260904171112 80 197 0.9 4.3 0.00 0.00 0.00 61 1010.5
20260904170048 81 270 0.0 2.6 0.00 0.00 0.00 60 1010.5
20260904165035 82 190 0.9 3.5 0.00 0.00 0.00 58 1010.5
20260904163028 83 225 2.6 7.0 0.00 0.00 0.00 56 1010.5
20260904162025 83 259 1.7 4.3 0.00 0.00 0.00 57 1010.5
20260904161022 83 228 1.7 4.3 0.00 0.00 0.00 56 1010.6
20260904160019 84 183 0.9 3.5 0.00 0.00 0.00 57 1010.5
20260904155015 84 285 1.7 7.0 0.00 0.00 0.00 55 1010.5
20260904154112 84 170 2.6 9.6 0.00 0.00 0.00 56 1010.4
20260904153130 85 220 2.6 11.3 0.00 0.00 0.00 56 1010.5
20260904152106 85 262 3.5 10.4 0.00 0.00 0.00 55 1010.5
20260904151123 85 229 1.7 7.0 0.00 0.00 0.00 55 1010.5
20260904150100 85 240 5.2 18.2 0.00 0.00 0.00 55 1010.5
20260904145056 85 249 1.7 7.0 0.00 0.00 0.00 55 1010.5
20260904144053 85 261 1.7 7.0 0.00 0.00 0.00 55 1010.6
20260904142107 85 254 2.6 11.3 0.00 0.00 0.00 54 1010.8
20260904141044 85 207 1.7 11.3 0.00 0.00 0.00 55 1010.8
20260904140041 85 251 1.7 10.4 0.00 0.00 0.00 57 1011.0
20260904134034 83 205 1.7 7.0 0.00 0.00 0.00 57 1011.2
20260904133031 83 255 0.9 7.0 0.00 0.00 0.00 57 1011.4
20260904132028 84 222 4.3 13.9 0.00 0.01 0.00 58 1011.4
20260904131023 85 256 3.5 13.0 0.00 0.04 0.00 56 1011.5
20260904125016 84 187 2.6 13.0 0.00 0.07 0.00 58 1011.7
20260904124133 84 266 3.5 9.6 0.00 0.07 0.00 59 1012.0